sat.trackr.live / text

‹ back to catalog

STARLINK-34897

NORAD 65212 · 2025-176Q

PAYLOAD ACTIVE UNKNOWN

§ Identity

Operator
Country
US
Launch date
2025-08-14
Launch site
AFETR
Launch vehicle
Mass (kg)
RCS (m²)

Purposes: comms

External: N2YO · Heavens-Above · Gunter

§ Orbital elements

Epoch: 2026-09-20T13:13:31.127808Z

Period
93.85 min
Inclination
53.1605°
Eccentricity
0.0001922
Mean motion
15.34397786 rev/d
Perigee alt
461.4 km
Apogee alt
464.0 km
Semi-major
6,840.8 km
B*
3.6169e-4
RAAN
323.4324°
Arg perigee
146.0589°
Mean anomaly
214.0537°
Rev number
6,301

§ Raw data

STARLINK-348971 65212U 25176Q   26263.55105472  .00011863  00000+0  36169-3 0  99912 65212  53.1605 323.4324 0001922 146.0589 214.0537 15.34397786 63011

JSON: /api/v1/satellites/65212 · /tle

For live sub-satellite position, see the globe view (requires WebGL).

§ Visibility from observer

Set your observer location to see the next 7 days of passes ≥ 10°. The values pass through the URL so the page stays shareable.

No JS? Fill the form by hand. The geolocation button needs JavaScript.